sat.trackr.live / text

‹ back to catalog

STARLINK-32565

NORAD 62182 · 2024-225V

PAYLOAD ACTIVE UNKNOWN

§ Identity

Operator
Country
US
Launch date
2024-11-30
Launch site
AFWTR
Launch vehicle
Mass (kg)
RCS (m²)

Purposes: comms

External: N2YO · Heavens-Above · Gunter

§ Orbital elements

Epoch: 2026-09-21T18:55:45.614496Z

Period
96.11 min
Inclination
70.0019°
Eccentricity
0.0002687
Mean motion
14.98336520 rev/d
Perigee alt
570.2 km
Apogee alt
573.9 km
Semi-major
6,950.2 km
B*
1.6343e-4
RAAN
29.8272°
Arg perigee
271.2532°
Mean anomaly
88.8319°
Rev number
9,925

§ Raw data

STARLINK-325651 62182U 24225V   26264.78872239  .00001858  00000+0  16343-3 0  99912 62182  70.0019  29.8272 0002687 271.2532  88.8319 14.98336520 99256

JSON: /api/v1/satellites/62182 · /tle

For live sub-satellite position, see the globe view (requires WebGL).

§ Visibility from observer

Set your observer location to see the next 7 days of passes ≥ 10°. The values pass through the URL so the page stays shareable.

No JS? Fill the form by hand. The geolocation button needs JavaScript.